[[[{"header":{"parameterUnit":"kt","parameterCategory":2,"dx":1,"dy":1,"la1":30.253999710083008,"la2":30.299108505249023,"lo1":-89.0895004272461,"lo2":-89.04439544677734,"nx":28,"ny":28,"refTime":"2022-09-17T21:00:00:Z","depth":0,"parameterNumber":1,"parameterNumberName":"U-component_of_WINDS"},"data":[-3.7526,-3.7572,-3.7507,-3.7532,-3.7477,-3.7484,-3.7466,-3.7436,-3.7396,-3.7399,-3.7389,-3.7329,-3.7264,-3.7239,-3.7227,-3.7201,-3.7203,-3.727,-3.7228,-3.6983,-3.6945,-3.6909,-3.6893,-3.727,-3.7271,-3.7493,-3.7495,-3.7496,-3.7365,-3.7311,-3.7303,-3.725,-3.7244,-3.7141,-3.7092,-3.7094,-3.7103,-3.7052,-3.7037,-3.7034,-3.7023,-3.6932,-3.6912,-3.6936,-3.6887,-3.6936,-3.6935,-3.6928,-3.6662,-3.6646,-3.6977,-3.6977,-3.6977,-3.6977,-3.6977,-3.6977,-3.7054,-3.7084,-3.7011,-3.7001,-3.6955,-3.6922,-3.6939,-3.6861,-3.6852,-3.6818,-3.6739,-3.6748,-3.6685,-3.6623,-3.6586,-3.6594,-3.6527,-3.656,-3.6569,-3.6581,-3.6605,-3.6305,-3.6586,-3.6585,-3.6584,-3.6583,-3.6582,0,-3.6807,-3.6749,-3.6733,-3.67,-3.6688,-3.6655,-3.6613,-3.6621,-3.6472,-3.6472,-3.6465,-3.645,-3.6422,-3.6411,-3.6373,-3.6325,-3.6219,-3.6198,-3.6221,-3.6263,-3.6309,-3.6292,-3.5868,-3.619,-3.6187,-3.6184,-3.6182,-3.6181,-3.6494,-3.6532,-3.642,-3.6419,-3.6377,-3.6377,-3.6363,-3.6226,-3.6218,-3.6147,-3.618,-3.6164,-3.6144,-3.6146,-3.6053,-3.6032,-3.598,-3.6112,-3.5975,-3.6016,-3.5988,-3.5989,-3.5996,-3.6142,-3.6147,-3.6151,-3.6154,0,-3.6325,-3.6209,-3.6246,-3.6129,-3.6101,-3.615,-3.6051,-3.6073,-3.5991,-3.6012,-3.6009,-3.5882,-3.5878,-3.5761,-3.5731,-3.5671,-3.5761,-3.5707,-3.5784,-3.5769,-3.588,-3.5874,-3.6246,-3.629,-3.5892,-3.5896,-3.5899,0,-3.6014,-3.6069,-3.5894,-3.5921,-3.5979,-3.5837,-3.59,-3.5834,-3.577,-3.5785,-3.564,-3.5658,-3.5503,-3.5505,-3.5415,-3.5466,-3.5458,-3.5417,-3.5394,-3.5432,-3.5439,-3.5429,-3.5413,-3.533,-3.5328,-3.5327,-3.5325,0,-3.5765,-3.5731,-3.5773,-3.5747,-3.5624,-3.5649,-3.5599,-3.5524,-3.551,-3.5473,-3.5464,-3.5431,-3.5414,-3.5393,-3.5279,-3.5192,-3.5335,-3.5191,-3.5293,-3.5297,-3.5333,-3.5333,-3.5689,-3.5323,-3.5322,-3.5322,-3.5321,0,-3.5495,-3.5456,-3.5533,-3.5428,-3.5424,-3.5451,-3.5408,-3.5402,-3.5334,-3.5278,-3.5247,-3.5135,-3.5163,-3.5031,-3.5071,-3.4991,-3.4985,-3.4945,-3.495,-3.4948,-3.4803,-3.5027,-3.5374,-3.5408,-3.4946,-3.4942,-3.494,0,-3.5247,-3.5288,-3.5164,-3.5239,-3.5242,-3.5078,-3.5106,-3.5047,-3.4972,-3.4967,-3.4884,-3.4878,-3.4753,-3.4734,-3.4769,-3.4685,-3.4789,-3.4667,-3.4669,-3.4671,-3.4698,-3.5015,-3.5098,-3.531,-3.4897,-3.4902,-3.4905,0,-3.5037,-3.488,-3.4902,-3.4866,-3.4759,-3.4759,-3.479,-3.4749,-3.4753,-3.4698,-3.4724,-3.4708,-3.4615,-3.4584,-3.4487,-3.453,-3.4715,-3.4423,-3.4419,-3.4486,-3.4863,-3.4944,-3.498,-3.4642,-3.4647,-3.4651,-3.4872,0,-3.4667,-3.4668,-3.4719,-3.4638,-3.4617,-3.4653,-3.452,-3.4517,-3.4426,-3.4344,-3.4376,-3.4291,-3.425,-3.4254,-3.4164,-3.4297,-3.4256,-3.4155,-3.4018,-3.4225,-3.4296,-3.4323,-3.3926,-3.3921,-3.3917,-3.3913,0,0,-3.4461,-3.4458,-3.4315,-3.4335,-3.4309,-3.4133,-3.4185,-3.4139,-3.405,-3.4038,-3.396,-3.3926,-3.3859,-3.3912,-3.3966,-3.3946,-3.396,-3.389,-3.4126,-3.4151,-3.4173,-3.425,-3.4281,-3.3906,-3.3904,-3.3903,-3.3902,0,-3.4297,-3.4227,-3.4276,-3.4221,-3.4134,-3.4042,-3.4055,-3.3937,-3.3886,-3.3911,-3.3767,-3.3769,-3.374,-3.3692,-3.3664,-3.388,-3.3773,-3.3877,-3.404,-3.409,-3.412,-3.4145,-3.4228,-3.4259,-3.3892,-3.3892,-3.3893,0,-3.407,-3.3981,-3.3989,-3.3914,-3.3854,-3.3858,-3.3682,-3.3691,-3.3694,-3.3499,-3.3526,-3.3461,-3.3382,-3.3444,-3.3467,-3.3397,-3.3611,-3.3515,-3.3537,-3.3538,-3.3579,-3.3615,-3.3647,-3.3227,-3.3225,-3.3223,0,0,-3.3948,-3.3944,-3.3803,-3.3868,-3.3841,-3.3703,-3.369,-3.3595,-3.3524,-3.3497,-3.3409,-3.3348,-3.3331,-3.3323,-3.3298,-3.3385,-3.336,-3.3439,-3.347,-3.3496,-3.3512,-3.356,-3.3595,-3.3217,-3.3217,-3.3216,0,0,-3.3888,-3.3726,-3.3644,-3.3701,-3.364,-3.3505,-3.3551,-3.3448,-3.3411,-3.3392,-3.3232,-3.3208,-3.3264,-3.3204,-3.3131,-3.3248,-3.3115,-3.3129,-3.3285,-3.3323,-3.3353,-3.3368,-3.2938,0,0,0,0,0,-3.3649,-3.3746,-3.3673,-3.3662,-3.3564,-3.3546,-3.3532,-3.3402,-3.3312,-3.3352,-3.3263,-3.3144,-3.3133,-3.3065,-3.3058,-3.314,-3.3131,-3.3146,-3.3161,-3.3381,-3.3422,-3.3457,0,0,0,0,0,0,-3.3643,-3.363,-3.367,-3.3542,-3.3518,-3.3541,-3.336,-3.3327,-3.3304,-3.3281,-3.3166,-3.3141,-3.303,-3.3059,-3.3055,-3.3137,-3.2939,-3.3137,-3.315,-3.3162,-3.3395,-3.3429,-3.3457,0,0,0,0,0,-3.3638,-3.3628,-3.3504,-3.3539,-3.3519,-3.3369,-3.3355,-3.3326,-3.3306,-3.3165,-3.3136,-3.3209,-3.3036,-3.3023,-3.3056,-3.3142,-3.2941,-3.294,-3.3146,-3.3156,-3.3165,-3.3412,0,0,0,0,0,0,-3.3635,-3.3602,-3.3497,-3.3486,-3.3491,-3.3365,-3.334,-3.3326,-3.3188,-3.3161,-3.32,-3.3184,-3.3041,-3.303,-3.3021,-3.3152,-3.2943,-3.2942,-3.2941,-3.3153,-3.3161,-3.3168,0,0,0,0,0,0,-3.3606,-3.3594,-3.3491,-3.3438,-3.3419,-3.3362,-3.334,-3.3348,-3.3189,-3.323,-3.3212,-3.3195,-3.3055,-3.3036,-3.3028,-3.3045,-3.2944,-3.2943,-3.2942,-3.2942,-3.316,-3.3166,0,0,0,0,0,0,-3.3599,-3.3588,-3.344,-3.3426,-3.3409,-3.3277,-3.3366,-3.3274,-3.3142,-3.3239,-3.3126,-3.3119,-3.3064,-3.3053,-3.3034,-3.3055,-3.3048,-3.2944,-3.2944,-3.2943,-3.2943,0,0,0,0,0,0,0,-3.3593,-3.3697,-3.3562,-3.3416,-3.3401,-3.3386,-3.3383,-3.338,-3.314,-3.3134,-3.3128,-3.3122,-3.2951,-3.295,-3.2948,-3.3063,0,0,-3.2945,-3.2944,0,0,0,0,0,0,0,0,-3.3698,-3.3697,-3.3562,-3.3559,-3.3557,-3.3385,-3.3383,-3.338,-3.3139,-3.3134,-3.3129,-3.3124,-3.2951,-3.295,-3.2949,0,0,0,0,0,0,0,0,0,0,0,0,0,0,0,-3.3561,-3.3559,0,-3.3385,-3.3383,-3.3381,-3.3138,-3.3134,-3.313,-3.3126,-3.295,-3.295,-3.2949,0,0,0,0,0,0,0,0,0,0,0,0,0,0,0,0,0,0,0,0,0,0,0,0,0,0,0,0,0,0,0,0,0,0,0,0,0,0,0,0,0,0,0,0,0,0,0,0,0,0,0,0,0,0,0,0,0,0,0,0,0,0,0,0,0,0,0,0,0]}],[{"header":{"parameterUnit":"kt","parameterCategory":2,"dx":1,"dy":1,"la1":30.253999710083008,"la2":30.299108505249023,"lo1":-89.0895004272461,"lo2":-89.04439544677734,"nx":28,"ny":28,"refTime":"2022-09-17T21:00:00:Z","depth":0,"parameterNumber":2,"parameterNumberName":"V-component_of_WINDS"},"data":[3.9833,3.9826,3.9842,3.9841,3.9855,3.9856,3.9862,3.987,3.9881,3.9884,3.9889,3.9903,3.9918,3.9927,3.9931,3.9937,3.9936,3.9924,3.9932,3.9978,3.9985,3.9992,3.9994,3.9924,3.9924,3.988,3.988,3.988,3.9867,3.9881,3.9885,3.99,3.9903,3.9926,3.9939,3.994,3.994,3.9953,3.9958,3.9962,3.9966,3.9987,3.9993,3.9989,3.9998,3.9989,3.9987,3.9989,4.004,4.0042,3.9982,3.9982,3.9982,3.9982,3.9982,3.9982,3.9932,3.9928,3.9945,3.995,3.9962,3.9971,3.9969,3.9987,3.999,3.9999,4.0017,4.0017,4.0032,4.0046,4.0054,4.0054,4.0066,4.006,4.0058,4.0055,4.0049,4.0107,4.0057,4.0057,4.0057,4.0057,4.0058,0,3.9984,3.9997,4.0002,4.0011,4.0016,4.0024,4.0034,4.0034,4.0065,4.0067,4.007,4.0074,4.0082,4.0085,4.0095,4.0104,4.0123,4.0128,4.0123,4.0112,4.0102,4.0104,4.0184,4.0128,4.0129,4.0129,4.013,4.013,4.0048,4.0041,4.0067,4.0068,4.0077,4.0079,4.0083,4.0111,4.0114,4.013,4.0124,4.0129,4.0133,4.0135,4.0153,4.0159,4.0167,4.0144,4.0168,4.0159,4.0163,4.0161,4.016,4.0137,4.0136,4.0135,4.0135,0,4.0081,4.0106,4.01,4.0126,4.0132,4.0123,4.0144,4.0141,4.0158,4.0155,4.0156,4.0181,4.0183,4.0205,4.0212,4.0223,4.0207,4.0217,4.0202,4.0204,4.0183,4.0183,4.0117,4.0108,4.0185,4.0184,4.0184,0,4.0143,4.0134,4.017,4.0165,4.0156,4.0184,4.0173,4.0186,4.0199,4.0197,4.0225,4.0222,4.0251,4.0251,4.0268,4.0259,4.0261,4.0268,4.0271,4.0263,4.0262,4.0261,4.0262,4.0284,4.0285,4.0285,4.0285,0,4.019,4.0199,4.0193,4.0198,4.0223,4.0219,4.0229,4.0244,4.0247,4.0255,4.0256,4.0264,4.0266,4.0271,4.0291,4.0306,4.0282,4.0307,4.0289,4.0288,4.0278,4.0278,4.0218,4.0285,4.0286,4.0286,4.0286,0,4.0242,4.0251,4.0238,4.0259,4.026,4.0255,4.0264,4.0266,4.0279,4.0289,4.0295,4.0315,4.0311,4.0333,4.0328,4.0341,4.0342,4.0349,4.0348,4.0345,4.0369,4.0328,4.0271,4.0264,4.0348,4.0349,4.0349,0,4.0288,4.0282,4.0305,4.0293,4.0292,4.0322,4.0318,4.0329,4.0342,4.0343,4.0358,4.0359,4.0381,4.0383,4.0378,4.0392,4.0375,4.0396,4.0393,4.0393,4.0385,4.0335,4.0319,4.0282,4.0356,4.0355,4.0355,0,4.0326,4.0356,4.0352,4.0359,4.0378,4.0378,4.0374,4.0381,4.038,4.039,4.0385,4.0388,4.0404,4.0408,4.0424,4.0417,4.0387,4.0434,4.0435,4.0423,4.0362,4.0347,4.0341,4.04,4.0399,4.0398,4.036,0,4.0393,4.0394,4.0385,4.0399,4.0403,4.0396,4.0419,4.042,4.0435,4.0449,4.0443,4.0457,4.0463,4.0463,4.0477,4.0455,4.0461,4.0478,4.0498,4.0466,4.0454,4.0449,4.0514,4.0515,4.0516,4.0516,0,0,4.0429,4.043,4.0454,4.0451,4.0455,4.0485,4.0475,4.0483,4.0497,4.0498,4.0511,4.0516,4.0525,4.0516,4.0508,4.0511,4.0508,4.0518,4.0482,4.0478,4.0474,4.0461,4.0456,4.0517,4.0518,4.0518,4.0518,0,4.0458,4.047,4.0461,4.047,4.0485,4.0499,4.0497,4.0516,4.0524,4.0519,4.0542,4.0541,4.0544,4.0551,4.0555,4.0522,4.0537,4.0522,4.0496,4.0487,4.0483,4.0478,4.0464,4.0459,4.052,4.0519,4.0519,0,4.0497,4.0511,4.0509,4.0521,4.0531,4.0529,4.0558,4.0555,4.0554,4.0585,4.0579,4.0589,4.06,4.059,4.0585,4.0596,4.0561,4.0577,4.0573,4.0572,4.0565,4.0559,4.0554,4.062,4.0621,4.0621,0,0,4.0517,4.0518,4.054,4.0529,4.0533,4.0555,4.0556,4.0571,4.0581,4.0585,4.0598,4.0606,4.0608,4.0609,4.0611,4.0597,4.06,4.0588,4.0583,4.0579,4.0576,4.0568,4.0562,4.0622,4.0622,4.0622,0,0,4.0527,4.0553,4.0566,4.0556,4.0566,4.0586,4.0577,4.0594,4.0599,4.0601,4.0625,4.0628,4.0619,4.0627,4.0638,4.0618,4.0639,4.0637,4.0613,4.0607,4.0602,4.0599,4.0666,0,0,0,0,0,4.0566,4.055,4.0562,4.0563,4.0577,4.058,4.0582,4.0601,4.0615,4.0608,4.0621,4.0638,4.0638,4.0648,4.0649,4.0635,4.0635,4.0632,4.063,4.0596,4.059,4.0585,0,0,0,0,0,0,4.0567,4.0569,4.0562,4.0582,4.0585,4.0581,4.0608,4.0613,4.0616,4.062,4.0635,4.0639,4.0655,4.0649,4.0649,4.0636,4.0666,4.0634,4.0632,4.063,4.0594,4.0589,4.0585,0,0,0,0,0,4.0568,4.0569,4.0587,4.0582,4.0585,4.0607,4.0609,4.0613,4.0616,4.0636,4.064,4.063,4.0654,4.0655,4.0649,4.0635,4.0666,4.0666,4.0633,4.0631,4.063,4.0591,0,0,0,0,0,0,4.0568,4.0573,4.0588,4.059,4.059,4.0608,4.0611,4.0613,4.0632,4.0636,4.0632,4.0634,4.0653,4.0654,4.0655,4.0634,4.0666,4.0666,4.0666,4.0631,4.063,4.0629,0,0,0,0,0,0,4.0572,4.0574,4.0589,4.0597,4.06,4.0608,4.0611,4.0609,4.0632,4.0627,4.063,4.0633,4.0651,4.0654,4.0655,4.065,4.0666,4.0666,4.0666,4.0666,4.063,4.063,0,0,0,0,0,0,4.0573,4.0575,4.0597,4.0599,4.0601,4.062,4.0606,4.0619,4.064,4.0626,4.0643,4.0644,4.065,4.0651,4.0654,4.0648,4.0649,4.0666,4.0666,4.0666,4.0666,0,0,0,0,0,0,0,4.0574,4.0559,4.0579,4.06,4.0603,4.0604,4.0605,4.0605,4.0641,4.0641,4.0642,4.0643,4.0666,4.0666,4.0666,4.0647,0,0,4.0666,4.0666,0,0,0,0,0,0,0,0,4.0559,4.0559,4.0579,4.0579,4.0579,4.0604,4.0605,4.0605,4.0641,4.0641,4.0642,4.0643,4.0666,4.0666,4.0666,0,0,0,0,0,0,0,0,0,0,0,0,0,0,0,4.0579,4.0579,0,4.0604,4.0605,4.0605,4.0641,4.0641,4.0642,4.0643,4.0666,4.0666,4.0666,0,0,0,0,0,0,0,0,0,0,0,0,0,0,0,0,0,0,0,0,0,0,0,0,0,0,0,0,0,0,0,0,0,0,0,0,0,0,0,0,0,0,0,0,0,0,0,0,0,0,0,0,0,0,0,0,0,0,0,0,0,0,0,0,0,0,0,0,0]}]]]